[[{"header":{"parameterUnit":"m.s-1","parameterCategory":2,"la1":30.2991,"la2":30.254,"lo1":-89.0895,"lo2":-89.0444,"dy":0.0017,"dx":0.0017,"nx":28,"ny":28,"refTime":"2025-09-11T21:00:00:Z","depth":"0","parameterNumber":2,"parameterNumberName":"U-component_of_CURRENTS"},"data":[0,0,0,0,0,0,0,0,0,0,0,0,0,0,0,0,0,0,0,0,0,0,0,0,0,0,0,0,0,0,0,0,0,0,0,0,0,0,0,0,0,0,0,0,0,0,0,0,0,0,0,0,0,0,0,0,0,0,0.1594,0.1594,0,0.1579,0.1579,0.1578,0.1558,0.1558,0.1558,0.1558,0.1494,0.1493,0.1491,0,0,0,0,0,0,0,0,0,0,0,0,0,0.1625,0.1624,0.1594,0.1594,0.1594,0.1579,0.1579,0.1578,0.1558,0.1558,0.1558,0.1558,0.1495,0.1493,0.1491,0,0,0,0,0,0,0,0,0,0,0,0,0,0.161,0.1624,0.1594,0.1583,0.1582,0.1579,0.1578,0.1578,0.1559,0.1558,0.1558,0.1558,0.1495,0.1493,0.1491,0.1483,0,0,0.1484,0.1483,0,0,0,0,0,0,0,0,0.161,0.1608,0.1585,0.1584,0.1583,0.1572,0.1566,0.1544,0.1559,0.1566,0.1558,0.1558,0.1517,0.1513,0.1509,0.148,0.1477,0.1484,0.1482,0.1481,0.1481,0,0,0,0,0,0,0,0.1611,0.1609,0.1586,0.1585,0.1584,0.1586,0.1583,0.1562,0.1541,0.1565,0.1564,0.1565,0.1516,0.1511,0.1507,0.1476,0.1484,0.1482,0.148,0.148,0.1479,0.148,0,0,0,0,0,0,0.1615,0.161,0.1587,0.1586,0.1598,0.1586,0.1582,0.1574,0.1542,0.1538,0.1565,0.1564,0.1515,0.151,0.1505,0.1502,0.1481,0.1479,0.1478,0.1478,0.1479,0.1481,0,0,0,0,0,0,0.1616,0.1613,0.1588,0.1599,0.1596,0.1585,0.1577,0.1574,0.1569,0.1543,0.1537,0.1563,0.1515,0.1508,0.15,0.1499,0.1478,0.1476,0.1476,0.1478,0.148,0.149,0,0,0,0,0,0,0.1617,0.1613,0.1609,0.1599,0.1596,0.1583,0.1577,0.1574,0.1571,0.1569,0.1539,0.1533,0.1514,0.1504,0.1498,0.1495,0.1474,0.1474,0.1477,0.1479,0.1488,0.1492,0.1496,0,0,0,0,0,0.1618,0.1606,0.1608,0.1606,0.159,0.1583,0.1581,0.1572,0.1571,0.1567,0.156,0.1534,0.1516,0.1503,0.1495,0.1492,0.1473,0.1476,0.1479,0.1486,0.1491,0.1495,0,0,0,0,0,0,0.1608,0.1603,0.1605,0.159,0.1589,0.158,0.1573,0.1575,0.1566,0.1564,0.1543,0.1537,0.1533,0.152,0.1506,0.1506,0.1493,0.1495,0.1501,0.1506,0.1509,0.1487,0.1473,0,0,0,0,0,0.1608,0.16,0.1599,0.1587,0.1587,0.1584,0.1581,0.1578,0.1571,0.1566,0.1551,0.1543,0.1541,0.1528,0.1522,0.1511,0.152,0.1511,0.1515,0.1518,0.15,0.1557,0.1564,0.1491,0.1491,0.149,0,0,0.1599,0.1597,0.1591,0.1586,0.1582,0.1575,0.158,0.1574,0.1566,0.156,0.1544,0.1553,0.1545,0.1542,0.1538,0.1525,0.1543,0.1522,0.1524,0.1503,0.1561,0.1568,0.1574,0.1493,0.1492,0.1492,0,0,0.1581,0.1578,0.1569,0.157,0.157,0.1568,0.1569,0.1566,0.1562,0.1557,0.1562,0.1572,0.1553,0.1554,0.1551,0.1573,0.1568,0.1579,0.1565,0.1622,0.1628,0.1633,0.1643,0.1649,0.1573,0.1573,0.1573,0,0.1571,0.1559,0.1566,0.156,0.1553,0.1565,0.1553,0.1553,0.1549,0.1547,0.1551,0.1562,0.1556,0.1561,0.1571,0.1576,0.16,0.1543,0.1625,0.1631,0.1636,0.1645,0.1652,0.1573,0.1573,0.1573,0.1573,0,0.155,0.1541,0.1534,0.1529,0.1526,0.1517,0.1521,0.152,0.1523,0.1527,0.1539,0.1553,0.1555,0.1569,0.1568,0.1604,0.1605,0.163,0.1608,0.1644,0.1652,0.1658,0.1575,0.1574,0.1574,0.1574,0,0,0.1515,0.1518,0.1514,0.1508,0.1508,0.15,0.1493,0.1488,0.1484,0.15,0.1501,0.152,0.1539,0.154,0.156,0.1603,0.1659,0.1628,0.163,0.1625,0.1762,0.1661,0.1658,0.1714,0.1715,0.1716,0.1748,0,0.1492,0.1477,0.1482,0.1459,0.1449,0.1456,0.1447,0.1449,0.1457,0.1465,0.1497,0.1508,0.1526,0.1538,0.1586,0.1643,0.168,0.1646,0.1737,0.1738,0.1635,0.1663,0.151,0.1517,0.1755,0.1756,0.1756,0,0.1462,0.1459,0.1437,0.1424,0.1419,0.1407,0.1394,0.139,0.1409,0.142,0.1447,0.1477,0.1518,0.1549,0.1647,0.1631,0.1688,0.1737,0.174,0.164,0.1649,0.1524,0.152,0.1414,0.1767,0.1766,0.1765,0,0.1432,0.1418,0.1399,0.1395,0.139,0.1374,0.1367,0.1373,0.1368,0.1397,0.1405,0.1464,0.1491,0.1585,0.1655,0.167,0.1768,0.1805,0.1762,0.1755,0.1633,0.1611,0.1521,0.1886,0.1886,0.1886,0.1886,0,0.1401,0.1379,0.1383,0.1374,0.1343,0.1348,0.1321,0.1324,0.1336,0.1333,0.1382,0.1396,0.1511,0.1571,0.1653,0.17,0.1766,0.1746,0.176,0.163,0.1609,0.1517,0.1493,0.1887,0.1887,0.1887,0.1886,0,0.136,0.1368,0.1344,0.1337,0.1329,0.1305,0.1284,0.1272,0.1288,0.1289,0.1299,0.1355,0.142,0.1509,0.1644,0.167,0.1665,0.1754,0.1559,0.1548,0.1385,0.1368,0.1305,0.1282,0.1704,0.1702,0.17,0,0.1327,0.132,0.1312,0.1299,0.1291,0.1262,0.1243,0.1246,0.1238,0.126,0.1262,0.1312,0.1342,0.1452,0.1501,0.1582,0.1575,0.1484,0.1479,0.1329,0.1324,0.1325,0.1312,0.1327,0.1322,0.1318,0.1315,0,0.1274,0.1283,0.1278,0.1259,0.1237,0.1205,0.1183,0.1172,0.118,0.1183,0.1196,0.1221,0.1272,0.1266,0.1327,0.1365,0.1334,0.1403,0.1321,0.106,0.0986,0.0984,0.133,0.128,0.1284,0.1286,0.1288,0.129,0.1236,0.1226,0.1237,0.121,0.1188,0.1154,0.1118,0.1111,0.1093,0.1084,0.1126,0.1126,0.1067,0.1117,0.1133,0.0973,0.1112,0.093,0.0935,0.0961,0.0881,0.1111,0.1035,0.1037,0.1039,0.104,0.1041,0,0.1193,0.12,0.1182,0.1156,0.1117,0.1117,0.1079,0.1043,0.1015,0.1018,0.1017,0.0916,0.0821,0.0767,0.0589,0.0512,0.0544,0.0474,0.0435,0.0465,0.071,0.0631,0.0373,0.0373,0.0374,0.0374,0.0374,0.0374,0.1178,0.1168,0.1164,0.1099,0.1072,0.1002,0.0975,0.0931,0.0915,0.0847,0.0791,0.079,0.0587,0.0297,0.0092,0.0088,0.0089,0.0043,0.0146,0.0271,0.0315,0.0356,0.0273,-0.0055,-0.0055,-0.0148,-0.0149,-0.015]},{"header":{"parameterUnit":"m.s-1","parameterCategory":2,"la1":30.2991,"la2":30.254,"lo1":-89.0895,"lo2":-89.0444,"dy":0.0017,"dx":0.0017,"nx":28,"ny":28,"refTime":"2025-09-11T21:00:00:Z","depth":"0","parameterNumber":3,"parameterNumberName":"V-component_of_CURRENTS"},"data":[0,0,0,0,0,0,0,0,0,0,0,0,0,0,0,0,0,0,0,0,0,0,0,0,0,0,0,0,0,0,0,0,0,0,0,0,0,0,0,0,0,0,0,0,0,0,0,0,0,0,0,0,0,0,0,0,0,0,-0.0063,-0.0063,0,-0.0063,-0.0063,-0.0063,-0.0063,-0.0063,-0.0063,-0.0063,-0.006,-0.006,-0.006,0,0,0,0,0,0,0,0,0,0,0,0,0,-0.0069,-0.0068,-0.0063,-0.0063,-0.0063,-0.0063,-0.0063,-0.0063,-0.0063,-0.0063,-0.0063,-0.0063,-0.006,-0.006,-0.006,0,0,0,0,0,0,0,0,0,0,0,0,0,-0.0067,-0.0068,-0.0063,-0.0063,-0.0064,-0.0063,-0.0063,-0.0063,-0.0063,-0.0063,-0.0063,-0.0063,-0.006,-0.006,-0.006,-0.0058,0,0,-0.0059,-0.0059,0,0,0,0,0,0,0,0,-0.0067,-0.0066,-0.0063,-0.0063,-0.0064,-0.0063,-0.0064,-0.0061,-0.0063,-0.0062,-0.0063,-0.0063,-0.0061,-0.0061,-0.006,-0.0058,-0.0058,-0.0059,-0.0059,-0.0059,-0.0059,0,0,0,0,0,0,0,-0.0067,-0.0066,-0.0063,-0.0063,-0.0064,-0.0066,-0.0065,-0.0064,-0.0061,-0.0062,-0.0063,-0.0063,-0.0061,-0.006,-0.006,-0.0058,-0.0059,-0.0059,-0.0059,-0.0059,-0.0019,-0.0018,0,0,0,0,0,0,-0.0067,-0.0066,-0.0063,-0.0063,-0.0066,-0.0065,-0.0065,-0.0063,-0.0061,-0.0061,-0.0063,-0.0063,-0.0061,-0.006,-0.006,-0.0024,-0.0059,-0.0059,-0.0059,-0.002,-0.0019,-0.0018,0,0,0,0,0,0,-0.0068,-0.0067,-0.0063,-0.0065,-0.0065,-0.0065,-0.0063,-0.0063,-0.0063,-0.0062,-0.0062,-0.0063,-0.0061,-0.006,-0.0054,-0.0026,-0.0059,-0.0059,-0.0021,-0.0019,-0.0018,0.0026,0,0,0,0,0,0,-0.0068,-0.0067,-0.0068,-0.0065,-0.0065,-0.0061,-0.0063,-0.0063,-0.0063,-0.0063,-0.0062,-0.0061,-0.0061,-0.0054,-0.0054,-0.0026,-0.0059,-0.0022,-0.002,-0.0019,0.0023,0.0028,0.0033,0,0,0,0,0,-0.0068,-0.007,-0.0068,-0.0068,-0.0065,-0.0061,-0.0061,-0.0062,-0.0063,-0.0062,-0.0058,-0.0061,-0.0042,-0.0054,-0.0054,-0.0025,-0.0023,-0.0021,-0.0019,0.0021,0.0027,0.0033,0,0,0,0,0,0,-0.0077,-0.007,-0.0068,-0.0069,-0.0064,-0.0061,-0.0063,-0.0062,-0.0058,-0.0058,-0.0057,-0.0057,-0.0038,-0.0041,-0.0054,-0.0007,-0.003,-0.0027,0.0,0.0007,0.0011,0.0042,-0.0058,0,0,0,0,0,-0.0078,-0.0075,-0.0069,-0.007,-0.0068,-0.0065,-0.0065,-0.0062,-0.0058,-0.0057,-0.0055,-0.0046,-0.0028,-0.0021,-0.0014,0.0005,0.0026,0.0027,0.0032,0.0036,0.0062,0.0136,0.0151,-0.001,-0.001,-0.001,0,0,-0.0083,-0.0079,-0.0077,-0.0072,-0.0069,-0.0059,-0.0065,-0.0062,-0.0045,-0.0057,-0.004,-0.0035,-0.0022,0.0005,0.0015,0.0007,0.0084,0.0039,0.0043,0.0067,0.014,0.0156,0.017,-0.0009,-0.0009,-0.0009,0,0,-0.0087,-0.0085,-0.0082,-0.0074,-0.0068,-0.006,-0.0059,-0.0052,-0.0041,-0.0028,-0.0021,0.001,0.001,0.0049,0.0064,0.0102,0.0104,0.0092,0.0148,0.0219,0.0234,0.0247,0.0256,0.027,0.01,0.01,0.01,0,-0.0092,-0.0083,-0.0081,-0.0073,-0.006,-0.0059,-0.0043,-0.0032,-0.0023,0.0007,-0.002,0.0043,0.0045,0.0121,0.0132,0.0119,0.0133,0.0123,0.0229,0.0242,0.0255,0.0261,0.0276,0.0102,0.0102,0.0102,0.0101,0,-0.0089,-0.0079,-0.0077,-0.0058,-0.0045,-0.0034,-0.0013,0.0007,0.0016,0.004,0.0101,0.0113,0.0162,0.0164,0.0156,0.0254,0.0223,0.0222,0.0216,0.0274,0.0276,0.029,0.0105,0.0105,0.0104,0.0103,0,0,-0.0097,-0.0077,-0.0074,-0.0052,-0.0031,-0.0014,0.0022,0.0073,0.0123,0.0135,0.0209,0.0245,0.0263,0.0283,0.029,0.035,0.0429,0.0323,0.0326,0.0337,0.0544,0.0489,0.0499,0.0448,0.0452,0.0455,0.0495,0,-0.0089,-0.0067,-0.0055,-0.0016,0.0005,0.0034,0.0077,0.0125,0.0163,0.0229,0.0277,0.0332,0.0305,0.0333,0.0394,0.0427,0.0476,0.0416,0.0483,0.0485,0.0435,0.0519,0.0503,0.0537,0.0509,0.0511,0.0513,0,-0.0082,-0.0063,-0.003,0.0032,0.0047,0.0073,0.0166,0.0204,0.0296,0.0329,0.0402,0.0426,0.0517,0.0478,0.0587,0.0546,0.0554,0.057,0.0572,0.0527,0.046,0.0482,0.0564,0.0564,0.0535,0.0534,0.0532,0,-0.0073,-0.0035,-0.0002,0.0013,0.0073,0.0112,0.0153,0.024,0.0295,0.0398,0.0446,0.0545,0.059,0.0649,0.0656,0.0635,0.0756,0.0732,0.0688,0.0681,0.0687,0.0675,0.0791,0.0823,0.0823,0.0823,0.0823,0,-0.0057,-0.0025,0.0005,0.0026,0.0091,0.0129,0.0216,0.0272,0.0366,0.0444,0.0498,0.0569,0.064,0.0697,0.0704,0.0736,0.0796,0.0726,0.0715,0.0693,0.0682,0.0696,0.069,0.0824,0.0824,0.0824,0.0823,0,-0.0042,-0.003,0.0015,0.0072,0.0094,0.0143,0.0234,0.0301,0.0377,0.048,0.0512,0.0609,0.0682,0.0721,0.0806,0.0787,0.0828,0.0814,0.0746,0.0728,0.0681,0.0677,0.079,0.0802,0.0795,0.0794,0.0794,0,-0.0026,-0.0011,0.0039,0.0066,0.0092,0.0162,0.0216,0.03,0.0365,0.0498,0.0547,0.0639,0.0702,0.0785,0.0796,0.0815,0.0814,0.078,0.0756,0.0708,0.0697,0.0698,0.07,0.076,0.0759,0.0759,0.0758,0,0.0007,0.0012,0.0045,0.0086,0.0133,0.0198,0.0272,0.0319,0.0422,0.0495,0.0591,0.065,0.0729,0.0766,0.0776,0.0773,0.0784,0.0764,0.0775,0.0743,0.07,0.0693,0.0652,0.0752,0.0753,0.0753,0.0754,0.0754,0.0032,0.0053,0.0076,0.012,0.0168,0.0225,0.0268,0.0339,0.0423,0.0518,0.0584,0.0654,0.0717,0.0747,0.0745,0.072,0.0746,0.0705,0.0717,0.0732,0.0724,0.0632,0.0681,0.0681,0.0681,0.0682,0.0682,0,0.0059,0.0075,0.0113,0.0157,0.0197,0.0223,0.0302,0.0333,0.0399,0.0479,0.0546,0.0625,0.0669,0.0698,0.0698,0.0684,0.0696,0.068,0.0707,0.0723,0.0702,0.0679,0.0658,0.0658,0.0658,0.0658,0.0658,0.0658,0.0079,0.0103,0.0113,0.0167,0.0198,0.0239,0.0272,0.0309,0.0357,0.0421,0.0472,0.0531,0.0574,0.0669,0.0676,0.067,0.0704,0.0691,0.072,0.0711,0.0715,0.0719,0.0699,0.0682,0.0682,0.0743,0.0744,0.0744]}],[{"header":{"parameterUnit":"m.s-1","parameterCategory":2,"la1":30.2991,"la2":30.254,"lo1":-89.0895,"lo2":-89.0444,"dy":0.0017,"dx":0.0017,"nx":28,"ny":28,"refTime":"2025-09-11T21:00:00:Z","depth":"2","parameterNumber":2,"parameterNumberName":"U-component_of_CURRENTS"},"data":[0,0,0,0,0,0,0,0,0,0,0,0,0,0,0,0,0,0,0,0,0,0,0,0,0,0,0,0,0,0,0,0,0,0,0,0,0,0,0,0,0,0,0,0,0,0,0,0,0,0,0,0,0,0,0,0,0,0,0.1338,0.1338,0,0.1327,0.1327,0.1326,0.1346,0.1347,0.1348,0.1348,0.1367,0.1367,0.1367,0,0,0,0,0,0,0,0,0,0,0,0,0,0.1342,0.1342,0.1338,0.1338,0.1338,0.1327,0.1327,0.1326,0.1346,0.1347,0.1348,0.1349,0.1367,0.1367,0.1367,0,0,0,0,0,0,0,0,0,0,0,0,0,0.1334,0.1342,0.1338,0.1349,0.135,0.1327,0.1326,0.1326,0.1345,0.1347,0.1348,0.1349,0.1368,0.1367,0.1367,0.1337,0,0,0.1365,0.1365,0,0,0,0,0,0,0,0,0.1335,0.1334,0.1347,0.1348,0.1349,0.1341,0.1335,0.1332,0.1345,0.1344,0.1348,0.135,0.1362,0.1362,0.1353,0.1338,0.1339,0.1365,0.1365,0.1365,0.1364,0,0,0,0,0,0,0,0.1335,0.1334,0.1331,0.1347,0.1348,0.1342,0.1342,0.1334,0.1345,0.1345,0.1347,0.1349,0.1363,0.1353,0.1354,0.1339,0.1365,0.1365,0.1364,0.1364,0.142,0.1422,0,0,0,0,0,0,0.1342,0.1335,0.1332,0.1331,0.1348,0.1341,0.1341,0.134,0.1344,0.1346,0.1348,0.135,0.1354,0.1354,0.1355,0.1411,0.1365,0.1364,0.1364,0.1418,0.1421,0.1423,0,0,0,0,0,0,0.1342,0.1341,0.1332,0.1335,0.1334,0.134,0.1338,0.134,0.136,0.1346,0.1349,0.1371,0.1355,0.1355,0.1379,0.1408,0.1364,0.1364,0.1416,0.1419,0.1422,0.1464,0,0,0,0,0,0,0.1342,0.1341,0.1353,0.1335,0.1334,0.1338,0.1337,0.1338,0.1359,0.1362,0.1367,0.1368,0.1356,0.138,0.1379,0.1407,0.1363,0.1414,0.1418,0.1421,0.1461,0.1468,0.1475,0,0,0,0,0,0.1342,0.1347,0.1353,0.1354,0.1346,0.1339,0.1338,0.1345,0.1359,0.1369,0.1381,0.137,0.1401,0.1381,0.1379,0.1407,0.1412,0.1417,0.142,0.1458,0.1467,0.1474,0,0,0,0,0,0,0.1357,0.135,0.1356,0.136,0.1361,0.1344,0.1355,0.1361,0.1375,0.1389,0.138,0.1382,0.1415,0.1409,0.1387,0.1437,0.141,0.1413,0.1439,0.1447,0.1454,0.1454,0.1363,0,0,0,0,0,0.1365,0.1367,0.1362,0.1368,0.1372,0.137,0.1373,0.1379,0.1384,0.1393,0.1399,0.1412,0.1423,0.1435,0.1438,0.1458,0.1467,0.1481,0.1488,0.1494,0.1496,0.1531,0.154,0.1436,0.1436,0.1436,0,0,0.137,0.137,0.1371,0.1372,0.1374,0.1378,0.1375,0.1389,0.1402,0.1391,0.1423,0.1433,0.1435,0.146,0.1476,0.1463,0.1534,0.1499,0.1503,0.1502,0.1536,0.1546,0.1555,0.1438,0.1438,0.1437,0,0,0.1378,0.1386,0.1392,0.1395,0.1407,0.1402,0.1415,0.1418,0.1434,0.1455,0.1461,0.1494,0.1503,0.1515,0.152,0.1569,0.1567,0.1579,0.1613,0.1648,0.1656,0.1664,0.1707,0.1718,0.1585,0.1585,0.1585,0,0.1394,0.1397,0.1394,0.1403,0.1413,0.1419,0.1432,0.1438,0.1454,0.1472,0.1478,0.1521,0.1528,0.1562,0.1586,0.1584,0.1605,0.1577,0.1655,0.1663,0.167,0.1712,0.1724,0.1588,0.1587,0.1587,0.1587,0,0.1396,0.1413,0.1419,0.1432,0.1439,0.1454,0.1461,0.1484,0.1507,0.1516,0.1565,0.1577,0.1605,0.1621,0.1616,0.1675,0.1676,0.1656,0.1629,0.1683,0.1725,0.1736,0.1591,0.159,0.159,0.1589,0,0,0.1409,0.1419,0.1428,0.1444,0.1461,0.1467,0.1493,0.1517,0.1544,0.1574,0.161,0.1649,0.1666,0.1675,0.1685,0.1721,0.1798,0.1716,0.1717,0.1751,0.1889,0.168,0.1673,0.1791,0.1793,0.1794,0.1905,0,0.1424,0.1444,0.1445,0.1476,0.1492,0.1506,0.1526,0.1552,0.1577,0.161,0.1643,0.1675,0.1682,0.1705,0.1745,0.177,0.1827,0.1771,0.1839,0.1841,0.1642,0.1677,0.1524,0.159,0.1916,0.1918,0.1919,0,0.144,0.1451,0.148,0.1509,0.1517,0.1536,0.1578,0.1595,0.1634,0.1653,0.1695,0.171,0.1767,0.1763,0.1855,0.1819,0.187,0.1896,0.19,0.1692,0.1651,0.1587,0.1597,0.1937,0.1936,0.1935,0.1933,0,0.1461,0.1486,0.1511,0.1521,0.1544,0.157,0.1587,0.1622,0.1635,0.1684,0.1697,0.176,0.1785,0.1853,0.19,0.1891,0.1993,0.1982,0.1857,0.1845,0.1716,0.1686,0.2074,0.2074,0.2073,0.2073,0.2073,0,0.1483,0.1512,0.1526,0.1543,0.1577,0.1591,0.1628,0.1651,0.1674,0.1686,0.1724,0.1738,0.181,0.186,0.192,0.1899,0.2014,0.1863,0.1849,0.1726,0.1696,0.1991,0.198,0.2077,0.2076,0.2075,0.2075,0,0.1511,0.1521,0.1555,0.1582,0.1591,0.162,0.1637,0.1651,0.1676,0.169,0.1702,0.1736,0.1777,0.1841,0.194,0.1886,0.1916,0.1901,0.1741,0.1701,0.1753,0.1744,0.1758,0.1752,0.1746,0.1741,0.1737,0,0.1526,0.1546,0.158,0.159,0.1608,0.1636,0.1644,0.166,0.166,0.1678,0.1677,0.1713,0.1691,0.1718,0.1663,0.1683,0.1834,0.1537,0.1456,0.1731,0.1718,0.1717,0.1715,0.1352,0.1345,0.134,0.1335,0,0.1549,0.1569,0.1584,0.1606,0.1623,0.1625,0.1637,0.1631,0.1635,0.1624,0.1606,0.1582,0.1532,0.1396,0.1354,0.1367,0.1495,0.1411,0.1783,0.1398,0.1339,0.1328,0.1343,0.1286,0.1291,0.1294,0.1297,0.1299,0.1564,0.1578,0.1593,0.1613,0.162,0.1608,0.1595,0.1577,0.1549,0.1454,0.1477,0.1319,0.1243,0.101,0.1011,0.1011,0.1121,0.1091,0.1114,0.1142,0.1016,0.0944,0.0797,0.0799,0.0801,0.0803,0.0804,0,0.1556,0.1573,0.159,0.1598,0.1584,0.1598,0.1572,0.1506,0.1441,0.1278,0.1183,0.0897,0.0738,0.0738,0.0607,0.0564,0.0642,0.059,0.07,0.0746,0.0787,0.0651,0.0333,0.0332,0.0331,0.033,0,0,0.1548,0.1551,0.1556,0.1545,0.1551,0.1505,0.1477,0.1374,0.1231,0.0956,0.0749,0.0604,0.059,0.0385,0.039,0.0345,0.0559,0.0337,0.0707,0.0877,0.0918,0.1053,0.0886,0,0,0,0,0]},{"header":{"parameterUnit":"m.s-1","parameterCategory":2,"la1":30.2991,"la2":30.254,"lo1":-89.0895,"lo2":-89.0444,"dy":0.0017,"dx":0.0017,"nx":28,"ny":28,"refTime":"2025-09-11T21:00:00:Z","depth":"2","parameterNumber":3,"parameterNumberName":"V-component_of_CURRENTS"},"data":[0,0,0,0,0,0,0,0,0,0,0,0,0,0,0,0,0,0,0,0,0,0,0,0,0,0,0,0,0,0,0,0,0,0,0,0,0,0,0,0,0,0,0,0,0,0,0,0,0,0,0,0,0,0,0,0,0,0,-0.0349,-0.0349,0,-0.0361,-0.0361,-0.0361,-0.0397,-0.0398,-0.0398,-0.0399,-0.0455,-0.0456,-0.0456,0,0,0,0,0,0,0,0,0,0,0,0,0,-0.033,-0.0331,-0.0349,-0.0349,-0.0349,-0.0361,-0.0361,-0.0361,-0.0397,-0.0398,-0.0399,-0.04,-0.0455,-0.0456,-0.0456,0,0,0,0,0,0,0,0,0,0,0,0,0,-0.0339,-0.0331,-0.0349,-0.0369,-0.0371,-0.0361,-0.0361,-0.0361,-0.0396,-0.0398,-0.0399,-0.04,-0.0455,-0.0456,-0.0457,-0.0436,0,0,-0.046,-0.046,0,0,0,0,0,0,0,0,-0.0339,-0.034,-0.0366,-0.0368,-0.037,-0.038,-0.0375,-0.0389,-0.0396,-0.0386,-0.0399,-0.0401,-0.0434,-0.0436,-0.0434,-0.0439,-0.0441,-0.046,-0.046,-0.0461,-0.0461,0,0,0,0,0,0,0,-0.0338,-0.0339,-0.0353,-0.0366,-0.0369,-0.0369,-0.0372,-0.0377,-0.0402,-0.0387,-0.039,-0.0392,-0.0435,-0.0432,-0.0435,-0.0442,-0.046,-0.0461,-0.0461,-0.0462,-0.0511,-0.0512,0,0,0,0,0,0,-0.0338,-0.0339,-0.0352,-0.0353,-0.0358,-0.0368,-0.0371,-0.0374,-0.0401,-0.0407,-0.0391,-0.0394,-0.043,-0.0434,-0.0438,-0.0468,-0.0461,-0.0462,-0.0462,-0.0511,-0.0511,-0.0512,0,0,0,0,0,0,-0.0338,-0.0339,-0.0352,-0.0347,-0.0349,-0.0367,-0.037,-0.0374,-0.0394,-0.0404,-0.041,-0.041,-0.0431,-0.0436,-0.0464,-0.0469,-0.0462,-0.0463,-0.051,-0.0511,-0.0512,-0.0496,0,0,0,0,0,0,-0.0337,-0.0339,-0.0347,-0.0347,-0.0349,-0.0354,-0.0369,-0.0373,-0.0393,-0.0397,-0.0422,-0.0427,-0.0433,-0.0463,-0.0465,-0.047,-0.0464,-0.0509,-0.051,-0.0511,-0.0495,-0.0496,-0.0497,0,0,0,0,0,-0.0337,-0.0338,-0.0348,-0.035,-0.0358,-0.0354,-0.0355,-0.0372,-0.0393,-0.0396,-0.0423,-0.0428,-0.0474,-0.0464,-0.0467,-0.0472,-0.0508,-0.051,-0.0511,-0.0495,-0.0496,-0.0497,0,0,0,0,0,0,-0.0334,-0.0342,-0.0352,-0.0358,-0.0361,-0.0361,-0.0369,-0.0381,-0.0403,-0.0418,-0.0433,-0.0439,-0.0465,-0.0475,-0.0464,-0.0493,-0.0493,-0.0495,-0.048,-0.0481,-0.0481,-0.0465,-0.0465,0,0,0,0,0,-0.0336,-0.0342,-0.0347,-0.0352,-0.0357,-0.0367,-0.0372,-0.0384,-0.0399,-0.0411,-0.0429,-0.0453,-0.0468,-0.0481,-0.0494,-0.0507,-0.0482,-0.0515,-0.0516,-0.0516,-0.0507,-0.0476,-0.0471,-0.0517,-0.0517,-0.0517,0,0,-0.0335,-0.0342,-0.0345,-0.0352,-0.036,-0.0361,-0.0374,-0.0386,-0.0392,-0.0413,-0.0438,-0.0455,-0.0473,-0.0489,-0.0501,-0.0501,-0.0488,-0.0519,-0.0518,-0.0508,-0.0477,-0.0472,-0.0467,-0.0519,-0.0518,-0.0518,0,0,-0.0329,-0.0344,-0.0347,-0.0351,-0.0365,-0.0368,-0.0376,-0.0389,-0.0404,-0.0423,-0.0442,-0.046,-0.049,-0.0493,-0.0501,-0.0514,-0.0493,-0.0531,-0.0519,-0.0489,-0.0484,-0.0479,-0.0425,-0.0415,-0.0531,-0.0531,-0.0531,0,-0.0332,-0.0337,-0.0346,-0.035,-0.0358,-0.0374,-0.0379,-0.0386,-0.0407,-0.0417,-0.0436,-0.0466,-0.0485,-0.0488,-0.0499,-0.0512,-0.0486,-0.0511,-0.0486,-0.0481,-0.0477,-0.0422,-0.0412,-0.0531,-0.0531,-0.0531,-0.0531,0,-0.0323,-0.0335,-0.0337,-0.0349,-0.0355,-0.0363,-0.0373,-0.0387,-0.0413,-0.0419,-0.0438,-0.0453,-0.0469,-0.0482,-0.0497,-0.0482,-0.047,-0.0486,-0.0476,-0.047,-0.0414,-0.0403,-0.053,-0.053,-0.053,-0.053,0,0,-0.0322,-0.033,-0.0335,-0.0344,-0.0361,-0.0363,-0.0375,-0.0386,-0.0392,-0.0412,-0.041,-0.044,-0.0447,-0.0456,-0.047,-0.0451,-0.0399,-0.046,-0.0459,-0.039,-0.0311,-0.0273,-0.0258,-0.0412,-0.0411,-0.041,-0.0277,0,-0.0321,-0.0323,-0.033,-0.0342,-0.0349,-0.0366,-0.037,-0.0382,-0.0395,-0.0393,-0.0403,-0.0406,-0.0436,-0.0439,-0.0426,-0.0411,-0.0374,-0.0432,-0.034,-0.0336,-0.0291,-0.0246,-0.0283,-0.0166,-0.0267,-0.0265,-0.0263,0,-0.0321,-0.0323,-0.0331,-0.0345,-0.035,-0.036,-0.0375,-0.0378,-0.0376,-0.0381,-0.0379,-0.0379,-0.0358,-0.0382,-0.0325,-0.0362,-0.0333,-0.0313,-0.0308,-0.027,-0.0279,-0.0193,-0.0143,-0.0246,-0.0247,-0.0249,-0.025,0,-0.032,-0.0331,-0.0339,-0.0345,-0.0354,-0.0371,-0.038,-0.0385,-0.0377,-0.0365,-0.0343,-0.0331,-0.0304,-0.0279,-0.024,-0.0283,-0.0153,-0.0206,-0.0132,-0.0128,-0.0138,-0.0138,-0.0143,-0.0143,-0.0143,-0.0144,-0.0144,0,-0.0319,-0.0332,-0.0345,-0.035,-0.0363,-0.0375,-0.038,-0.0385,-0.0366,-0.0336,-0.0335,-0.0286,-0.0278,-0.0208,-0.0197,-0.0109,-0.011,-0.0103,-0.0087,-0.0134,-0.0134,-0.02,-0.0208,-0.0139,-0.014,-0.0141,-0.0142,0,-0.0321,-0.0327,-0.0341,-0.0357,-0.0365,-0.0378,-0.0377,-0.0365,-0.0351,-0.0303,-0.0289,-0.0231,-0.0132,-0.0088,-0.0016,-0.0031,0.0032,0.0068,0.0029,0.0038,0.0023,0.0014,0.0148,0.0151,0.0153,0.0155,0.0156,0,-0.0324,-0.0329,-0.0347,-0.0351,-0.0366,-0.0378,-0.0375,-0.0366,-0.0341,-0.026,-0.0223,-0.011,0.0003,0.0142,0.0132,0.0204,0.0171,0.0191,0.009,0.0054,0.0056,0.0042,0.003,0.009,0.0091,0.0091,0.0092,0,-0.0328,-0.0339,-0.0339,-0.0347,-0.0355,-0.0346,-0.0342,-0.0312,-0.0277,-0.0205,-0.0084,0.0023,0.0151,0.0218,0.0296,0.0302,0.0165,0.0208,0.0202,0.0016,0.0007,0.0006,-0.0006,0.0098,0.0097,0.0097,0.0096,0.0096,-0.0333,-0.0333,-0.0332,-0.0338,-0.0337,-0.0314,-0.0294,-0.0248,-0.0172,-0.0045,0.0031,0.0188,0.0222,0.0342,0.0353,0.0291,0.0276,0.0214,0.0208,0.0202,0.0165,0.016,0.0275,0.0275,0.0275,0.0276,0.0276,0,-0.0321,-0.0319,-0.032,-0.0314,-0.0298,-0.0307,-0.0263,-0.0211,-0.0101,0.003,0.0175,0.0255,0.0354,0.0372,0.0279,0.026,0.0208,0.025,0.0163,0.0158,0.0153,0.0109,0.0206,0.0206,0.0206,0.0206,0,0,-0.0308,-0.0294,-0.0289,-0.027,-0.0271,-0.0241,-0.0209,-0.0123,-0.0035,0.0137,0.0227,0.0392,0.0384,0.032,0.029,0.0232,0.0195,0.0223,0.0275,0.0169,0.0165,0.0127,0.0054,0,0,0,0,0]}],[{"header":{"parameterUnit":"m.s-1","parameterCategory":2,"la1":30.2991,"la2":30.254,"lo1":-89.0895,"lo2":-89.0444,"dy":0.0017,"dx":0.0017,"nx":28,"ny":28,"refTime":"2025-09-11T21:00:00:Z","depth":"4","parameterNumber":2,"parameterNumberName":"U-component_of_CURRENTS"},"data":[0,0,0,0,0,0,0,0,0,0,0,0,0,0,0,0,0,0,0,0,0,0,0,0,0,0,0,0,0,0,0,0,0,0,0,0,0,0,0,0,0,0,0,0,0,0,0,0,0,0,0,0,0,0,0,0,0,0,-0.0126,-0.0126,0,-0.0111,-0.0111,-0.011,-0.0082,-0.0082,-0.0081,-0.0081,-0.0005,-0.0003,-0.0002,0,0,0,0,0,0,0,0,0,0,0,0,0,-0.0124,-0.0124,-0.0126,-0.0126,-0.0126,-0.0111,-0.0111,-0.011,-0.0082,-0.0082,-0.0081,-0.0081,-0.0005,-0.0003,-0.0001,0,0,0,0,0,0,0,0,0,0,0,0,0,-0.0117,-0.0124,-0.0126,-0.0111,-0.011,-0.0111,-0.0111,-0.011,-0.0082,-0.0082,-0.0081,-0.008,-0.0006,-0.0004,-0.0001,0.0001,0,0,0.0006,0.0007,0,0,0,0,0,0,0,0,-0.0118,-0.0117,-0.0113,-0.0112,-0.0111,-0.0099,-0.0082,-0.007,-0.0082,-0.0091,-0.0081,-0.008,-0.0032,-0.0028,-0.0025,0.0005,0.0008,0.0006,0.0008,0.0009,0.001,0,0,0,0,0,0,0,-0.0118,-0.0118,-0.0118,-0.0113,-0.0112,-0.0103,-0.0101,-0.008,-0.0063,-0.009,-0.0089,-0.0089,-0.0031,-0.0027,-0.0023,0.0009,0.0006,0.0009,0.001,0.0011,0.0101,0.0101,0,0,0,0,0,0,-0.0124,-0.0118,-0.0119,-0.0118,-0.0114,-0.0104,-0.0102,-0.0102,-0.0064,-0.0059,-0.009,-0.0088,-0.0032,-0.0026,-0.002,0.0047,0.0009,0.0011,0.0013,0.01,0.0101,0.0102,0,0,0,0,0,0,-0.0124,-0.0124,-0.012,-0.0119,-0.0118,-0.0105,-0.0105,-0.0102,-0.0083,-0.0065,-0.0058,-0.0073,-0.0031,-0.0023,0.0015,0.0048,0.0012,0.0015,0.0099,0.01,0.0101,0.0141,0,0,0,0,0,0,-0.0124,-0.0124,-0.0124,-0.0119,-0.0118,-0.0115,-0.0106,-0.0102,-0.0087,-0.0084,-0.0048,-0.0042,-0.003,0.0011,0.0017,0.0051,0.0017,0.0097,0.0099,0.0101,0.0139,0.0144,0.0148,0,0,0,0,0,-0.0124,-0.0127,-0.0124,-0.0124,-0.0119,-0.0115,-0.0114,-0.0101,-0.0086,-0.008,-0.005,-0.0042,0.0027,0.0014,0.0021,0.0056,0.0097,0.0099,0.0101,0.0137,0.0143,0.0148,0,0,0,0,0,0,-0.0123,-0.0125,-0.0121,-0.0123,-0.0117,-0.0111,-0.0103,-0.0093,-0.0066,-0.0053,-0.0032,-0.0023,0.0022,0.0029,0.0015,0.0085,0.0064,0.0067,0.0089,0.0094,0.0099,0.012,0.0019,0,0,0,0,0,-0.0125,-0.0129,-0.0125,-0.0126,-0.0119,-0.0107,-0.0102,-0.0092,-0.0072,-0.0059,-0.0031,0.0001,0.0032,0.0056,0.0076,0.0116,0.0115,0.0143,0.0147,0.0151,0.0172,0.0196,0.0205,0.0108,0.0108,0.0108,0,0,-0.0125,-0.0127,-0.0128,-0.0126,-0.0116,-0.0109,-0.0101,-0.0087,-0.007,-0.0054,-0.0009,0.0017,0.0043,0.0087,0.0109,0.0103,0.0172,0.0154,0.0157,0.0176,0.0199,0.0208,0.0217,0.011,0.011,0.0109,0,0,-0.013,-0.0125,-0.0127,-0.0122,-0.0111,-0.0103,-0.0095,-0.0075,-0.005,-0.0013,0.0008,0.0055,0.0098,0.0129,0.0149,0.0191,0.019,0.02,0.0252,0.0274,0.0283,0.029,0.0272,0.0278,0.021,0.021,0.021,0,-0.0126,-0.0132,-0.0127,-0.0125,-0.0114,-0.0097,-0.0086,-0.0065,-0.0032,0.0009,0.0007,0.0104,0.0119,0.0191,0.0209,0.0205,0.0206,0.0228,0.0281,0.0289,0.0296,0.0276,0.0281,0.0212,0.0212,0.0212,0.0211,0,-0.0133,-0.0133,-0.013,-0.0121,-0.0109,-0.0097,-0.0069,-0.0032,0.0005,0.0039,0.0123,0.0152,0.0223,0.0227,0.0237,0.0306,0.0284,0.0277,0.0267,0.0308,0.0284,0.0289,0.0215,0.0214,0.0214,0.0213,0,0,-0.0127,-0.0134,-0.0131,-0.0122,-0.0102,-0.0088,-0.0043,0.0013,0.0069,0.0117,0.0196,0.0256,0.0302,0.0327,0.0348,0.037,0.0403,0.0358,0.0358,0.0341,0.0433,0.0366,0.0365,0.0413,0.0415,0.0417,0.0386,0,-0.0127,-0.0134,-0.0127,-0.011,-0.0102,-0.006,-0.0015,0.0043,0.0103,0.0182,0.0248,0.0326,0.033,0.0382,0.0409,0.0411,0.0425,0.0411,0.0397,0.0396,0.0334,0.0372,0.0423,0.039,0.0391,0.0392,0.0392,0,-0.0128,-0.0133,-0.0126,-0.009,-0.0075,-0.0044,0.0054,0.0098,0.0209,0.0263,0.0362,0.041,0.0489,0.0469,0.0509,0.0505,0.0486,0.0467,0.0465,0.04,0.0341,0.0348,0.0402,0.0401,0.04,0.04,0.0399,0,-0.013,-0.0122,-0.0114,-0.0107,-0.0067,-0.0011,0.0045,0.0148,0.0201,0.034,0.0386,0.049,0.0532,0.0555,0.0531,0.0539,0.0527,0.0526,0.0439,0.0432,0.0482,0.0474,0.0546,0.0546,0.0546,0.0546,0.0546,0,-0.0128,-0.0121,-0.0103,-0.0096,-0.0034,0.0009,0.0112,0.0183,0.028,0.0335,0.0447,0.0474,0.0558,0.0559,0.0548,0.0501,0.0544,0.046,0.0435,0.0493,0.0488,0.0483,0.0476,0.0545,0.0545,0.0545,0.0546,0,-0.0131,-0.0132,-0.0123,-0.0074,-0.0037,0.0021,0.0141,0.0199,0.0296,0.0364,0.0411,0.0474,0.048,0.0509,0.0511,0.0497,0.047,0.0431,0.0466,0.0439,0.0356,0.0352,0.0369,0.0367,0.0365,0.0364,0.0362,0,-0.0134,-0.0137,-0.0106,-0.0079,-0.0043,0.0054,0.0117,0.0218,0.0258,0.0329,0.0333,0.0376,0.041,0.0364,0.0391,0.0384,0.0368,0.0371,0.041,0.0373,0.0346,0.0344,0.0342,0.0359,0.0359,0.0358,0.0358,0,-0.0142,-0.014,-0.0136,-0.0088,-0.0026,0.0031,0.0122,0.0139,0.0223,0.0293,0.0284,0.031,0.0291,0.0309,0.0304,0.0289,0.0399,0.0351,0.0356,0.0393,0.036,0.0335,0.0336,0.0351,0.0352,0.0353,0.0353,0,-0.0148,-0.0151,-0.015,-0.0096,-0.0043,-0.0013,0.0047,0.0087,0.0134,0.0208,0.0179,0.0212,0.0254,0.025,0.0226,0.0238,0.0249,0.0274,0.0284,0.0291,0.0283,0.0232,0.0173,0,0,0,0,0,-0.0146,-0.0157,-0.0143,-0.0107,-0.0067,-0.0031,0.0024,0.0068,0.0131,0.0119,0.0162,0.0148,0.0158,0.0158,0.0154,0.0171,0.0233,0.0166,0.0263,0.0314,0.0322,0.0321,0,0,0,0,0,0,-0.015,-0.0154,-0.0166,-0.0136,-0.0105,-0.0066,-0.004,-0.0002,0.0003,0.007,0.0069,0.0143,0.014,0.0158,0.0152,0.0156,0.0216,0.0194,0.0194,0.0309,0.0316,0.0323,0.0325,0,0,0,0,0]},{"header":{"parameterUnit":"m.s-1","parameterCategory":2,"la1":30.2991,"la2":30.254,"lo1":-89.0895,"lo2":-89.0444,"dy":0.0017,"dx":0.0017,"nx":28,"ny":28,"refTime":"2025-09-11T21:00:00:Z","depth":"4","parameterNumber":3,"parameterNumberName":"V-component_of_CURRENTS"},"data":[0,0,0,0,0,0,0,0,0,0,0,0,0,0,0,0,0,0,0,0,0,0,0,0,0,0,0,0,0,0,0,0,0,0,0,0,0,0,0,0,0,0,0,0,0,0,0,0,0,0,0,0,0,0,0,0,0,0,0.0263,0.0263,0,0.0276,0.0276,0.0276,0.0289,0.0289,0.0289,0.0289,0.0277,0.0277,0.0276,0,0,0,0,0,0,0,0,0,0,0,0,0,0.0239,0.024,0.0263,0.0263,0.0264,0.0276,0.0276,0.0276,0.0289,0.0289,0.0289,0.0289,0.0278,0.0277,0.0276,0,0,0,0,0,0,0,0,0,0,0,0,0,0.025,0.024,0.0263,0.0272,0.0273,0.0276,0.0276,0.0276,0.0289,0.0289,0.0289,0.029,0.0278,0.0277,0.0276,0.0264,0,0,0.0274,0.0273,0,0,0,0,0,0,0,0,0.0249,0.0251,0.027,0.0271,0.0272,0.0282,0.0264,0.0271,0.0288,0.0282,0.0289,0.029,0.0277,0.0276,0.0277,0.0263,0.0263,0.0274,0.0273,0.0273,0.0273,0,0,0,0,0,0,0,0.0249,0.025,0.0267,0.0271,0.0272,0.0272,0.0274,0.0265,0.0276,0.0282,0.0283,0.0286,0.0277,0.0278,0.0277,0.0263,0.0274,0.0273,0.0272,0.0272,0.024,0.0239,0,0,0,0,0,0,0.0249,0.0249,0.0267,0.0268,0.0263,0.0272,0.0274,0.0278,0.0277,0.0277,0.0286,0.0287,0.0279,0.0278,0.0276,0.0272,0.0273,0.0272,0.0272,0.024,0.024,0.0239,0,0,0,0,0,0,0.0248,0.025,0.0266,0.026,0.0262,0.0273,0.0276,0.0278,0.0292,0.028,0.028,0.03,0.0279,0.0277,0.0276,0.0271,0.0272,0.0271,0.0241,0.024,0.024,0.0256,0,0,0,0,0,0,0.0248,0.025,0.0258,0.026,0.0262,0.0274,0.0276,0.0278,0.0292,0.0294,0.0291,0.029,0.0279,0.0278,0.0275,0.027,0.027,0.0241,0.024,0.024,0.0256,0.0256,0.0256,0,0,0,0,0,0.0247,0.0254,0.0258,0.0261,0.0271,0.0275,0.0276,0.0284,0.0293,0.0298,0.0297,0.0291,0.0271,0.0277,0.0274,0.0269,0.0241,0.0241,0.024,0.0256,0.0256,0.0256,0,0,0,0,0,0,0.0251,0.0256,0.0261,0.0271,0.0276,0.0277,0.0292,0.0292,0.0296,0.0302,0.0292,0.029,0.0284,0.0274,0.0281,0.0256,0.0253,0.0251,0.0266,0.0266,0.0266,0.0265,0.027,0,0,0,0,0,0.0254,0.0262,0.0265,0.0276,0.0285,0.0291,0.0297,0.0297,0.0299,0.0303,0.0299,0.0291,0.0276,0.0272,0.026,0.0251,0.0231,0.0243,0.0243,0.0243,0.024,0.0197,0.0193,0.0237,0.0237,0.0237,0,0,0.026,0.0265,0.027,0.0278,0.0291,0.0297,0.0297,0.0309,0.0311,0.0299,0.031,0.0295,0.0274,0.0262,0.0258,0.0256,0.0223,0.0242,0.0243,0.0239,0.0196,0.0192,0.0188,0.0236,0.0236,0.0236,0,0,0.0269,0.0284,0.0292,0.0297,0.031,0.0311,0.0318,0.0323,0.0329,0.033,0.0316,0.0298,0.0291,0.0264,0.0251,0.0244,0.0226,0.0242,0.0242,0.0201,0.0197,0.0193,0.0176,0.0171,0.0241,0.0241,0.0241,0,0.0273,0.0285,0.0295,0.0302,0.0314,0.0321,0.0331,0.0333,0.0332,0.0331,0.0338,0.0302,0.0287,0.0253,0.0249,0.0244,0.0227,0.0246,0.0201,0.0197,0.0193,0.0176,0.017,0.0242,0.0242,0.0242,0.0242,0,0.0281,0.0296,0.0307,0.032,0.0331,0.0343,0.0348,0.0354,0.0364,0.0353,0.0335,0.0309,0.0285,0.0272,0.0261,0.0219,0.0221,0.0208,0.0203,0.019,0.0173,0.0166,0.0243,0.0243,0.0242,0.0242,0,0,0.0275,0.0305,0.0311,0.0324,0.0342,0.035,0.0363,0.0366,0.0364,0.0356,0.0345,0.0311,0.0293,0.0275,0.0249,0.0211,0.0171,0.02,0.0198,0.0187,0.0097,0.0108,0.0101,0.0152,0.015,0.0149,0.0102,0,0.0281,0.0299,0.0314,0.0339,0.0353,0.0368,0.0379,0.0378,0.0374,0.0361,0.0328,0.0313,0.0295,0.0284,0.0239,0.0187,0.0152,0.0186,0.0108,0.0106,0.0119,0.0093,0.0145,0.0097,0.0096,0.0094,0.0094,0,0.0282,0.0295,0.0324,0.0351,0.0362,0.0383,0.04,0.0403,0.0384,0.0377,0.0346,0.0324,0.0274,0.0263,0.0167,0.0191,0.0147,0.0107,0.0104,0.0101,0.0103,0.0108,0.0081,0.0082,0.0083,0.0084,0.0084,0,0.0271,0.0302,0.033,0.034,0.037,0.0398,0.0419,0.0415,0.0414,0.0393,0.0383,0.0322,0.03,0.0226,0.0155,0.016,0.0049,0.0045,0.0013,0.0014,0.0013,0.0017,-0.0028,-0.0028,-0.0027,-0.0027,-0.0027,0,0.0265,0.0285,0.0337,0.035,0.039,0.0412,0.0441,0.0443,0.0435,0.0413,0.0397,0.0352,0.0288,0.0221,0.0152,0.0064,0.0047,0.0006,-0.0006,0.0024,0.0029,0.0009,0.0014,-0.0029,-0.0029,-0.0028,-0.0028,0,0.0248,0.0279,0.031,0.0362,0.039,0.0421,0.0475,0.0474,0.0475,0.0445,0.0445,0.0379,0.0294,0.0228,0.0109,0.0069,-0.002,-0.0046,0.0006,-0.0001,-0.0023,-0.0016,-0.0085,-0.0086,-0.0086,-0.0086,-0.0086,0,0.0239,0.0256,0.0325,0.0357,0.0396,0.045,0.048,0.0499,0.0485,0.0437,0.0406,0.0346,0.0293,0.0144,0.0071,-0.0029,-0.0046,-0.0066,-0.006,-0.0028,-0.0033,-0.0026,-0.002,-0.0086,-0.0086,-0.0086,-0.0086,0,0.0217,0.0252,0.0279,0.0349,0.0404,0.0441,0.0481,0.0461,0.045,0.0464,0.0368,0.0305,0.0212,0.0117,0.0063,-0.0025,-0.004,-0.0068,-0.0068,-0.0063,-0.003,-0.0033,-0.0027,-0.0087,-0.0087,-0.0087,-0.0087,0,0.0206,0.0221,0.027,0.0332,0.0392,0.0403,0.0425,0.0413,0.0406,0.0359,0.0316,0.0235,0.0205,0.0115,0.0035,-0.0012,-0.0029,-0.0036,-0.0038,-0.0038,-0.0006,0.0044,-0.001,0,0,0,0,0,0.0191,0.0205,0.0249,0.0297,0.0353,0.0394,0.0408,0.0413,0.04,0.0337,0.0331,0.0243,0.0141,0.0086,0.0038,0.0018,-0.0044,-0.0039,-0.0055,-0.009,-0.009,-0.0059,0,0,0,0,0,0,0.0178,0.0211,0.0229,0.0264,0.0298,0.0342,0.035,0.0337,0.0301,0.029,0.0233,0.025,0.0146,0.0177,0.0044,0.0029,0.0015,-0.007,-0.0071,-0.0091,-0.009,-0.009,-0.0058,0,0,0,0,0]}]]